Regional Weather Roundup
Issued by NWS

Home | Current Version | Previous Version | Graphics & Text | Print | Product List | Glossary On
Versions: 1 2 3 4 5 6 7 8 9 10 11 12 13 14 15 16 17 18 19 20 21 22 23 24 25 26 27
000
ASUS45 KBOI 231110
RWRID

IDAHO REGIONAL WEATHER ROUNDUP
NATIONAL WEATHER SERVICE BOISE ID
500 AM MDT TUE AUG 23 2016

NOTE: "FAIR" INDICATES FEW OR NO CLOUDS BELOW 12000 FEET
WITH NO SIGNIFICANT WEATHER AND/OR OBSTRUCTIONS TO VISIBILITY

IDZ012-014-231200-
SOUTHWEST IDAHO


CITY           SKY/WX    TMP DP  RH WIND       PRES   REMARKS
BOISE          CLEAR     56  32  40 CALM      30.03R
CALDWELL       CLEAR     54  33  45 W8        30.03R
MOUNTAIN HOME  CLEAR     57  29  34 NW14      30.02R
$$

IDZ016-017-231200-
SOUTHCENTRAL IDAHO


CITY           SKY/WX    TMP DP  RH WIND       PRES   REMARKS
BURLEY         PTCLDY    48  34  58 S5        30.03R
JEROME         PTCLDY    54  33  45 S6        30.05R
TWIN FALLS     PTCLDY    57  24  28 S14       30.05R
$$

IDZ019>023-231200-
SOUTHEAST IDAHO


CITY           SKY/WX    TMP DP  RH WIND       PRES   REMARKS
IDAHO FALLS    CLEAR     54  29  38 S10       30.05R
POCATELLO      CLEAR     49  23  36 S3        30.05R
REXBURG        CLOUDY    52  27  38 SW7       30.04R
$$

IDZ006-010-011-018-031-032-231200-
CENTRAL IDAHO MOUNTAINS


CITY           SKY/WX    TMP DP  RH WIND       PRES   REMARKS
MCCALL         CLEAR     49  28  44 N8        30.11S
HAILEY         CLEAR     45  23  42 NW10      30.10S
STANLEY          N/A     29  14  53 CALM      30.17R
SALMON         CLEAR    N/A N/A N/A MISG      30.09R
CHALLIS        CLEAR     46  17  31 S5        30.08R
$$

IDZ002-004-006-007-026-231200-
NORTHERN IDAHO


CITY           SKY/WX    TMP DP  RH WIND       PRES   REMARKS
LEWISTON       PTCLDY    56  34  43 CALM      30.06R
LOWELL           N/A     48  41  76 CALM      30.13R
COEUR D`ALENE  MOCLDY    52  -2  11 SE3       30.03S
MULLAN PASS    MOCLDY    44  29  55 VRB6      30.11S
$$




USA.gov is the U.S. government's official web portal to all federal, state and local government web resources and services.